sat.trackr.live / text

‹ back to catalog

STARLINK-3446

NORAD 51747 · 2022-016AK

PAYLOAD ACTIVE UNKNOWN

§ Identity

Operator
Country
US
Launch date
2022-02-21
Launch site
AFETR
Launch vehicle
Mass (kg)
RCS (m²)

Purposes: comms

External: N2YO · Heavens-Above · Gunter

§ Orbital elements

Epoch: 2026-05-24T22:27:40.728384Z

Period
95.44 min
Inclination
53.2144°
Eccentricity
0.0001227
Mean motion
15.08839988 rev/d
Perigee alt
538.9 km
Apogee alt
540.6 km
Semi-major
6,917.9 km
B*
3.6831e-5
RAAN
336.8863°
Arg perigee
73.4589°
Mean anomaly
286.6538°
Rev number
23,507

§ Raw data

STARLINK-34461 51747U 22016AK  26144.93588806  .00000298  00000+0  36831-4 0  99922 51747  53.2144 336.8863 0001227  73.4589 286.6538 15.08839988235074

JSON: /api/v1/satellites/51747 · /tle

For live sub-satellite position, see the globe view (requires WebGL).

§ Visibility from observer

Set your observer location to see the next 7 days of passes ≥ 10°. The values pass through the URL so the page stays shareable.

No JS? Fill the form by hand. The geolocation button needs JavaScript.